Weather History for KCTZ - April, 2013

Change the Weather History Date:

Monday, April 8, 2013

  Actual Average (KFAY) Record (KFAY)
Temperature  
Mean Temperature 64 °F 61 °F  
Max Temperature 78 °F 73 °F 91 °F (1967)
Min Temperature 50 °F 49 °F 27 °F (2007)
Degree Days  
Heating Degree Days 1 6  
Month to date heating degree days 52  
Since 1 July heating degree days 2621  
Cooling Degree Days 0 2  
Month to date cooling degree days 10  
Year to date cooling degree days 26  
Growing Degree Days 14 (Base 50)    
Moisture  
Dew Point 55 °F    
Average Humidity 72    
Maximum Humidity 100    
Minimum Humidity 42    
Precipitation  
Precipitation 0.00 in 0.11 in 1.70 in (1973)
Month to date precipitation 0.91  
Year to date precipitation 10.52  
Sea Level Pressure  
Sea Level Pressure 30.15 in    
Wind  
Wind Speed 4 mph (SSW)    
Max Wind Speed 12 mph    
Max Gust Speed 16 mph    
Visibility 9 miles    
Events      
T = Trace of Precipitation, MM = Missing Value Source: NWS Daily Summary

Daily Weather History Graph

Daily Weather History Graph

Search for Another Location

Airport or City:

Trip Planner

Search our weather history database for the weather conditions in past years. The results will help you decide how hot, cold, wet, or windy it might be!

Date:

Astronomy

Apr. 08, 2013 Rise Set
Actual Time 6:50 AM EDT 7:40 PM EDT
Civil Twilight 6:24 AM EDT 8:06 PM EDT
Nautical Twilight 5:54 AM EDT 8:36 PM EDT
Astronomical Twilight 5:23 AM EDT 9:08 PM EDT
Moon 5:36 AM EDT (4/8) 6:15 PM EDT (4/8)
Length of Visible Light 13h 41m
Length of Day
12h 50m
Waning Crescent, 3% of the Moon is Illuminated
Apr 8
Waning Crescent
Apr 10
New
Apr 18
First Quarter
Apr 25
Full
May 2
Last Quarter

Hourly Weather History & Observations

Time (EDT) Temp. Dew Point Humidity Pressure Visibility Wind Dir Wind Speed Gust Speed Precip Events Conditions
12:15 AM 58.1 °F 53.2 °F 84% 30.17 in 10.0 mi South 3.5 mph - N/A   Clear
12:35 AM 57.6 °F 53.6 °F 87% 30.17 in 10.0 mi South 4.6 mph - N/A   Clear
12:55 AM 56.8 °F 53.2 °F 88% 30.16 in 10.0 mi South 3.5 mph - N/A   Clear
1:15 AM 57.2 °F 53.8 °F 88% 30.16 in 10.0 mi Calm Calm - N/A   Clear
1:35 AM 56.3 °F 53.6 °F 91% 30.16 in 10.0 mi Calm Calm - N/A   Clear
1:55 AM 56.8 °F 54.5 °F 92% 30.16 in 10.0 mi South 3.5 mph - N/A   Clear
2:15 AM 56.7 °F 54.5 °F 92% 30.15 in 10.0 mi SSW 3.5 mph - N/A   Clear
2:35 AM 56.3 °F 54.5 °F 94% 30.15 in 10.0 mi Calm Calm - N/A   Clear
2:55 AM 55.4 °F 54.5 °F 97% 30.14 in 10.0 mi Calm Calm - N/A   Clear
3:15 AM 55.4 °F 54.5 °F 97% 30.14 in 10.0 mi Calm Calm - N/A   Clear
3:35 AM 55.0 °F 54.5 °F 98% 30.14 in 10.0 mi Calm Calm - N/A   Clear
3:55 AM 54.1 °F 54.0 °F 99% 30.14 in 7.0 mi Calm Calm - N/A   Clear
4:15 AM 53.6 °F 53.6 °F 100% 30.14 in 7.0 mi Calm Calm - N/A   Clear
4:35 AM 53.2 °F 53.2 °F 100% 30.14 in 7.0 mi Calm Calm - N/A   Clear
4:55 AM 53.6 °F 53.6 °F 100% 30.14 in 5.0 mi Calm Calm - N/A   Clear
5:15 AM 52.7 °F 52.7 °F 100% 30.15 in 4.0 mi Calm Calm - N/A   Clear
5:35 AM 53.1 °F 53.1 °F 100% 30.15 in 4.0 mi Calm Calm - N/A   Clear
5:55 AM 52.3 °F 52.3 °F 100% 30.16 in 3.0 mi Calm Calm - N/A   Clear
6:15 AM 52.2 °F 52.2 °F 100% 30.16 in 2.5 mi Calm Calm - N/A   Clear
6:35 AM 52.0 °F 52.0 °F 100% 30.17 in 2.0 mi Calm Calm - N/A   Clear
6:55 AM 51.3 °F 51.3 °F 100% 30.18 in 1.2 mi Calm Calm - N/A   Mist
7:15 AM 50.9 °F 50.9 °F 100% 30.19 in 1.0 mi Calm Calm - N/A   Mist
7:35 AM 51.3 °F 51.3 °F 100% 30.19 in 7.0 mi Calm Calm - N/A   Clear
7:55 AM 53.1 °F 53.1 °F 100% 30.20 in 7.0 mi Calm Calm - N/A   Clear
8:15 AM 54.0 °F 54.0 °F 100% 30.20 in 5.0 mi Calm Calm - N/A   Clear
8:35 AM 56.5 °F 56.5 °F 100% 30.21 in 7.0 mi Calm Calm - N/A   Clear
8:55 AM 58.3 °F 57.4 °F 97% 30.21 in 10.0 mi WSW 3.5 mph - N/A   Scattered Clouds
9:15 AM 61.2 °F 58.3 °F 90% 30.21 in 10.0 mi SW 3.5 mph - N/A   Mostly Cloudy
9:35 AM 64.8 °F 58.6 °F 81% 30.21 in 10.0 mi SW 5.8 mph - N/A   Scattered Clouds
9:55 AM 66.9 °F 58.8 °F 75% 30.21 in 10.0 mi SW 6.9 mph - N/A   Clear
10:15 AM 67.8 °F 57.2 °F 69% 30.21 in 10.0 mi WSW 9.2 mph - N/A   Clear
10:35 AM 68.9 °F 56.8 °F 65% 30.21 in 10.0 mi SW 9.2 mph - N/A   Scattered Clouds
10:55 AM 69.4 °F 56.3 °F 63% 30.21 in 10.0 mi WSW 10.4 mph 16.1 mph N/A   Scattered Clouds
11:15 AM 71.1 °F 55.8 °F 58% 30.20 in 10.0 mi SSW 8.1 mph - N/A   Clear
11:35 AM 71.8 °F 55.2 °F 56% 30.20 in 10.0 mi SW 11.5 mph 16.1 mph N/A   Clear
11:55 AM 72.9 °F 56.1 °F 56% 30.19 in 10.0 mi WSW 11.5 mph - N/A   Clear
12:15 PM 73.4 °F 55.6 °F 54% 30.19 in 10.0 mi SSW 9.2 mph - N/A   Clear
12:35 PM 74.7 °F 54.5 °F 49% 30.18 in 10.0 mi SW 11.5 mph - N/A   Clear
12:55 PM 75.7 °F 54.3 °F 47% 30.18 in 10.0 mi WSW 11.5 mph 16.1 mph N/A   Clear
1:15 PM 76.6 °F 55.0 °F 47% 30.17 in 10.0 mi West 10.4 mph - N/A   Clear
1:35 PM 76.8 °F 54.3 °F 46% 30.16 in 10.0 mi SSW 6.9 mph 16.1 mph N/A   Clear
1:55 PM 76.1 °F 54.5 °F 47% 30.15 in 10.0 mi SW 4.6 mph - N/A   Scattered Clouds
2:15 PM 77.5 °F 54.5 °F 45% 30.14 in 10.0 mi SW 6.9 mph - N/A   Scattered Clouds
2:35 PM 76.5 °F 53.6 °F 45% 30.13 in 10.0 mi SSW 4.6 mph - N/A   Scattered Clouds
2:55 PM 77.9 °F 54.1 °F 44% 30.12 in 10.0 mi SSW 6.9 mph - N/A   Mostly Cloudy
3:15 PM 78.3 °F 54.3 °F 43% 30.12 in 10.0 mi South 4.6 mph - N/A   Scattered Clouds
3:35 PM 77.2 °F 54.3 °F 45% 30.11 in 10.0 mi SW 4.6 mph - N/A   Scattered Clouds
3:55 PM 77.0 °F 54.0 °F 45% 30.11 in 10.0 mi SW 10.4 mph 16.1 mph N/A   Mostly Cloudy
4:15 PM 78.3 °F 54.5 °F 44% 30.10 in 10.0 mi SSW 6.9 mph - N/A   Mostly Cloudy
4:35 PM 77.2 °F 54.0 °F 44% 30.10 in 10.0 mi SW 5.8 mph - N/A   Scattered Clouds
4:55 PM 78.4 °F 53.8 °F 42% 30.09 in 10.0 mi South 9.2 mph - N/A   Scattered Clouds
5:15 PM 78.8 °F 54.3 °F 43% 30.09 in 10.0 mi SSW 5.8 mph - N/A   Scattered Clouds
5:35 PM 77.5 °F 53.8 °F 44% 30.09 in 10.0 mi WSW 5.8 mph - N/A   Mostly Cloudy
5:55 PM 77.0 °F 53.2 °F 44% 30.10 in 10.0 mi WSW 10.4 mph - N/A   Scattered Clouds
6:15 PM 77.0 °F 54.0 °F 45% 30.09 in 10.0 mi SW 4.6 mph - N/A   Clear
6:35 PM 76.8 °F 54.7 °F 46% 30.09 in 10.0 mi South 5.8 mph - N/A   Clear
6:55 PM 75.9 °F 55.6 °F 49% 30.10 in 10.0 mi South 4.6 mph - N/A   Scattered Clouds
7:15 PM 74.5 °F 55.0 °F 51% 30.10 in 10.0 mi South 5.8 mph - N/A   Scattered Clouds
7:35 PM 73.4 °F 54.0 °F 50% 30.11 in 10.0 mi South 9.2 mph - N/A   Scattered Clouds
7:55 PM 71.8 °F 54.0 °F 53% 30.12 in 10.0 mi South 8.1 mph - N/A   Clear
8:15 PM 70.5 °F 54.0 °F 56% 30.12 in 10.0 mi South 6.9 mph - N/A   Clear
8:35 PM 69.4 °F 54.1 °F 58% 30.13 in 10.0 mi South 4.6 mph - N/A   Clear
8:55 PM 68.4 °F 54.7 °F 62% 30.13 in 10.0 mi South 8.1 mph - N/A   Clear
9:15 PM 67.3 °F 54.9 °F 64% 30.14 in 10.0 mi South 4.6 mph - N/A   Clear
9:35 PM 66.9 °F 55.4 °F 66% 30.15 in 10.0 mi South 5.8 mph - N/A   Clear
9:55 PM 65.8 °F 55.6 °F 69% 30.15 in 10.0 mi South 4.6 mph - N/A   Clear
10:15 PM 65.3 °F 56.3 °F 73% 30.16 in 10.0 mi South 4.6 mph - N/A   Clear
10:35 PM 64.8 °F 56.7 °F 75% 30.16 in 10.0 mi South 4.6 mph - N/A   Clear
10:55 PM 64.4 °F 57.2 °F 77% 30.16 in 10.0 mi South 4.6 mph - N/A   Clear
11:15 PM 63.7 °F 57.6 °F 80% 30.16 in 10.0 mi South 5.8 mph - N/A   Clear
11:35 PM 63.5 °F 57.7 °F 81% 30.16 in 10.0 mi South 4.6 mph - N/A   Clear
11:55 PM 63.0 °F 58.1 °F 84% 30.16 in 10.0 mi SSW 3.5 mph - N/A   Clear